Overview Statistics Trail Chart Weather Telemetry Raw packets
 

This is the latest recevied weather packets stored in our database for station/object DK6GC-10. If no packets are shown the sender has not sent any weather packets the latest 10 day(s).

<< 9 10 11 12 13 14 15 >>
Time Temp. Humidity Pressure Rain* Wind** Luminosity Snow
1788463820 21.67° C 65% 1022.8 hPa - - - -
1788462920 21.67° C 64% 1022.7 hPa - - - -
1788462020 21.67° C 63% 1022.6 hPa - - - -
1788461120 21.67° C 66% 1022.5 hPa - - - -
1788460219 21.67° C 63% 1022.3 hPa - - - -
1788459318 21.67° C 66% 1022.2 hPa - - - -
1788458424 22.22° C 64% 1022.1 hPa - - - -
1788457524 22.22° C 64% 1022 hPa - - - -
1788456623 22.78° C 61% 1021.9 hPa - - - -
1788455723 23.33° C 59% 1021.9 hPa - - - -
1788454823 24.44° C 58% 1021.7 hPa - - - -
1788453922 24.44° C 52% 1021.7 hPa - - - -
1788453022 25° C 49% 1021.7 hPa - - - -
1788452122 25.56° C 46% 1021.6 hPa - - - -
1788451222 25.56° C 45% 1021.7 hPa - - - -
1788450322 26.11° C 45% 1021.8 hPa - - - -
1788449422 26.11° C 45% 1022 hPa - - - -
1788448521 26.11° C 43% 1022.1 hPa - - - -
1788447621 26.11° C 42% 1022.4 hPa - - - -
1788446721 26.67° C 42% 1022.4 hPa - - - -
1788445821 26.67° C 44% 1022.4 hPa - - - -
1788444921 26.67° C 44% 1022.6 hPa - - - -
1788444021 27.22° C 43% 1022.6 hPa - - - -
1788443120 27.22° C 41% 1022.7 hPa - - - -
1788442220 27.78° C 43% 1022.7 hPa - - - -

* Rain since midnight (hover to see other rain measurements)
** Current wind speed in m/s (hover to see current wind gust speed)